H1 CPF 2 NER 2024 2 25 9 056 01 glonass135 H2 1600801 9135 41330 2024 2 25 0 0 0 2024 2 28 23 45 0 900 1 1 0 0 0 1 H9 10 0 60365 0.00000 0 -24477477.097 137918.175 -7225437.681 10 0 60365 900.00000 0 -25192363.633 260142.090 -4091545.398 10 0 60365 1800.00000 0 -25506232.384 446046.431 -878310.600 10 0 60365 2700.00000 0 -25409736.637 639496.433 2351953.849 10 0 60365 3600.00000 0 -24907127.700 783909.260 5536623.629 10 0 60365 4500.00000 0 -24016072.281 824883.942 8613972.129 10 0 60365 5400.00000 0 -22766928.918 712738.369 11524361.033 10 0 60365 6300.00000 0 -21201513.958 404846.321 14211389.607 10 0 60365 7200.00000 0 -19371408.762 -132324.065 16622980.880 10 0 60365 8100.00000 0 -17335878.606 -921556.411 18712384.297 10 0 60365 9000.00000 0 -15159489.704 -1973686.823 20439076.104 10 0 60365 9900.00000 0 -12909523.076 -3286910.296 21769540.708 10 0 60365 10800.00000 0 -10653292.148 -4846622.992 22677918.522 10 0 60365 11700.00000 0 -8455474.853 -6625808.417 23146508.227 10 0 60365 12600.00000 0 -6375570.281 -8585953.058 23166113.930 10 0 60365 13500.00000 0 -4465584.841 -10678455.151 22736230.461 10 0 60365 14400.00000 0 -2768043.420 -12846469.794 21865062.772 10 0 60365 15300.00000 0 -1314407.832 -15027115.303 20569378.340 10 0 60365 16200.00000 0 -123968.071 -17153950.477 18874194.442 10 0 60365 17100.00000 0 796747.538 -19159620.723 16812305.147 10 0 60365 18000.00000 0 1454018.671 -20978563.383 14423655.975 10 0 60365 18900.00000 0 1866433.914 -22549659.526 11754577.210 10 0 60365 19800.00000 0 2063867.202 -23818721.083 8856889.752 10 0 60365 20700.00000 0 2085973.086 -24740708.529 5786900.341 10 0 60365 21600.00000 0 1980264.566 -25281585.164 2604305.409 10 0 60365 22500.00000 0 1799855.356 -25419728.985 -628974.872 10 0 60365 23400.00000 0 1600962.946 -25146841.654 -3850009.050 10 0 60365 24300.00000 0 1440279.397 -24468315.298 -6996088.803 10 0 60365 25200.00000 0 1372322.631 -23403041.098 -10005960.110 10 0 60365 26100.00000 0 1446881.969 -21982667.300 -12821025.953 10 0 60365 27000.00000 0 1706667.612 -20250337.908 -15386495.955 10 0 60365 27900.00000 0 2185265.002 -18258965.402 -17652459.636 10 0 60365 28800.00000 0 2905481.842 -16069110.530 -19574861.709 10 0 60365 29700.00000 0 3878158.599 -13746558.833 -21116360.134 10 0 60365 30600.00000 0 5101493.469 -11359696.055 -22247050.295 10 0 60365 31500.00000 0 6560910.721 -8976792.736 -22945041.577 10 0 60365 32400.00000 0 8229478.342 -6663311.651 -23196875.758 10 0 60365 33300.00000 0 10068857.651 -4479350.281 -22997779.867 10 0 60365 34200.00000 0 12030745.180 -2477324.439 -22351749.398 10 0 60365 35100.00000 0 14058746.556 -699988.606 -21271461.098 10 0 60365 36000.00000 0 16090604.142 821125.880 -19778017.649 10 0 60365 36900.00000 0 18060685.422 2066791.318 -17900529.788 10 0 60365 37800.00000 0 19902628.387 3030639.630 -15675544.348 10 0 60365 38700.00000 0 21552033.691 3719172.642 -13146329.545 10 0 60365 39600.00000 0 22949091.383 4151228.217 -10362031.538 10 0 60365 40500.00000 0 24041032.848 4356926.533 -7376718.668 10 0 60365 41400.00000 0 24784305.873 4376142.416 -4248331.913 10 0 60365 42300.00000 0 25146382.308 4256569.390 -1037561.929 10 0 60365 43200.00000 0 25107123.171 4051458.015 2193325.614 10 0 60365 44100.00000 0 24659644.476 3817124.595 5381693.698 10 0 60365 45000.00000 0 23810647.933 3610335.790 8465743.410 10 0 60365 45900.00000 0 22580202.912 3485679.648 11385705.983 10 0 60365 46800.00000 0 21000988.873 3493034.022 14084994.683 10 0 60365 47700.00000 0 19117029.829 3675239.059 16511294.660 10 0 60365 48600.00000 0 16981973.332 4066071.856 18617570.258 10 0 60365 49500.00000 0 14656985.210 4688608.686 20362970.951 10 0 60365 50400.00000 0 12208347.027 5554044.054 21713619.012 10 0 60365 51300.00000 0 9704855.310 6661016.860 22643264.312 10 0 60365 52200.00000 0 7215129.667 7995473.032 23133794.037 10 0 60365 53100.00000 0 4804940.580 9531071.720 23175587.700 10 0 60365 54000.00000 0 2534666.898 11230119.757 22767710.493 10 0 60365 54900.00000 0 456987.683 13044997.123 21917940.889 10 0 60365 55800.00000 0 -1385096.291 14920015.679 20642631.210 10 0 60365 56700.00000 0 -2959829.667 16793635.235 18966402.893 10 0 60365 57600.00000 0 -4247793.281 18600945.756 16921681.171 10 0 60365 58500.00000 0 -5242473.237 20276312.915 14548076.971 10 0 60365 59400.00000 0 -5950284.547 21756076.742 11891626.835 10 0 60365 60300.00000 0 -6390048.475 22981190.373 9003904.655 10 0 60365 61200.00000 0 -6591945.669 23899687.673 5941021.868 10 0 60365 62100.00000 0 -6595989.481 24468875.165 2762535.288 10 0 60365 63000.00000 0 -6450084.459 24657155.021 -469715.982 10 0 60365 63900.00000 0 -6207752.825 24445400.955 -3692821.322 10 0 60365 64800.00000 0 -5925626.259 23827827.880 -6844032.523 10 0 60365 65700.00000 0 -5660810.486 22812317.700 -9861995.727 10 0 60365 66600.00000 0 -5468235.740 21420186.682 -12687956.101 10 0 60365 67500.00000 0 -5398106.773 19685403.841 -15266910.629 10 0 60365 68400.00000 0 -5493561.765 17653293.011 -17548685.633 10 0 60365 69300.00000 0 -5788640.401 15378773.389 -19488917.331 10 0 60365 70200.00000 0 -6306647.973 12924212.712 -21049916.026 10 0 60365 71100.00000 0 -7058985.276 10356983.432 -22201397.185 10 0 60365 72000.00000 0 -8044494.056 7746824.528 -22921065.474 10 0 60365 72900.00000 0 -9249345.815 5163119.298 -23195041.074 10 0 60365 73800.00000 0 -10647478.668 2672202.608 -23018120.727 10 0 60365 74700.00000 0 -12201563.866 334809.379 -22393869.279 10 0 60365 75600.00000 0 -13864461.347 -1796230.267 -21334540.770 10 0 60365 76500.00000 0 -15581103.236 -3677954.423 -19860831.264 10 0 60365 77400.00000 0 -17290726.365 -5278811.142 -18001468.814 10 0 60365 78300.00000 0 -18929360.391 -6579716.042 -15792648.879 10 0 60365 79200.00000 0 -20432467.452 -7574583.646 -13277326.422 10 0 60365 80100.00000 0 -21737623.054 -8270312.267 -10504378.534 10 0 60365 81000.00000 0 -22787126.137 -8686225.088 -7527653.894 10 0 60365 81900.00000 0 -23530429.328 -8852992.716 -4404927.484 10 0 60365 82800.00000 0 -23926287.809 -8811084.069 -1196780.815 10 0 60365 83700.00000 0 -23944537.098 -8608812.058 2034570.634 10 0 60365 84600.00000 0 -23567425.466 -8300057.342 5226480.176 10 0 60365 85500.00000 0 -22790445.361 -7941766.707 8317079.613 10 0 60366 0.00000 0 -21622629.217 -7591331.937 11246472.433 10 0 60366 900.00000 0 -20086296.469 -7303959.587 13957889.260 10 0 60366 1800.00000 0 -18216263.734 -7130142.966 16398779.716 10 0 60366 2700.00000 0 -16058548.582 -7113342.047 18521825.378 10 0 60366 3600.00000 0 -13668621.713 -7287969.396 20285850.911 10 0 60366 4500.00000 0 -11109278.900 -7677766.708 21656617.991 10 0 60366 5400.00000 0 -8448220.240 -8294640.503 22607487.021 10 0 60366 6300.00000 0 -5755436.109 -9138006.496 23119934.307 10 0 60366 7200.00000 0 -3100507.171 -10194671.080 23183914.911 10 0 60366 8100.00000 0 -549929.311 -11439256.194 22798064.143 10 0 60366 9000.00000 0 1835426.577 -12835151.287 21969733.382 10 0 60366 9900.00000 0 4002615.338 -14335954.189 20714858.859 10 0 60366 10800.00000 0 5908583.900 -15887342.206 19057664.951 10 0 60366 11700.00000 0 7521721.876 -17429296.557 17030206.575 10 0 60366 12600.00000 0 8822932.007 -18898588.076 14671758.309 10 0 60366 13500.00000 0 9806175.861 -20231420.679 12028060.954 10 0 60366 14400.00000 0 10478472.035 -21366121.831 9150439.142 10 0 60366 15300.00000 0 10859346.949 -22245766.612 6094806.531 10 0 60366 16200.00000 0 10979761.722 -22820624.392 2920577.671 10 0 60366 17100.00000 0 10880560.632 -23050323.845 -310492.168 10 0 60366 18000.00000 0 10610507.309 -22905643.631 -3535516.001 10 0 60366 18900.00000 0 10223992.757 -22369852.007 -6691708.526 10 0 60366 19800.00000 0 9778513.237 -21439537.401 -9717618.777 10 0 60366 20700.00000 0 9332026.194 -20124893.868 -12554336.741 10 0 60366 21600.00000 0 8940297.556 -18449448.651 -15146649.264 10 0 60366 22500.00000 0 8654353.996 -16449242.665 -17444121.798 10 0 60366 23400.00000 0 8518149.161 -14171498.239 -19402084.169 10 0 60366 24300.00000 0 8566543.431 -11672830.073 -20982500.868 10 0 60366 25200.00000 0 8823683.169 -9017074.547 -22154708.953 10 0 60366 26100.00000 0 9301848.164 -6272828.442 -22896009.533 10 0 60366 27000.00000 0 10000815.881 -3510799.992 -23192101.979 10 0 60366 27900.00000 0 10907769.126 -801082.650 -23037353.159 10 0 60366 28800.00000 0 11997750.716 1789535.175 -22434897.333 10 0 60366 29700.00000 0 13234645.683 4200113.099 -21396565.561 10 0 60366 30600.00000 0 14572649.452 6377849.690 -19942646.698 10 0 60366 31500.00000 0 15958160.079 8280027.290 -18101485.201 10 0 60366 32400.00000 0 17332014.980 9875531.404 -15908923.928 10 0 60366 33300.00000 0 18631978.244 11145883.149 -13407603.004 10 0 60366 34200.00000 0 19795374.178 12085743.631 -10646128.515 10 0 60366 35100.00000 0 20761756.685 12702871.115 -7678127.179 10 0 60366 36000.00000 0 21475502.616 13017534.750 -4561205.337 10 0 60366 36900.00000 0 21888220.430 13061411.088 -1355832.454 10 0 60366 37800.00000 0 21960873.223 12876011.272 1875829.292 10 0 60366 38700.00000 0 21665527.196 12510706.190 5071126.744 10 0 60366 39600.00000 0 20986652.244 12020433.534 8168125.604 10 0 60366 40500.00000 0 19921920.075 11463183.866 11106805.205 10 0 60366 41400.00000 0 18482466.205 10897371.762 13830215.378 10 0 60366 42300.00000 0 16692604.432 10379202.762 16285573.443 10 0 60366 43200.00000 0 14589005.106 9960146.779 18425280.637 10 0 60366 44100.00000 0 12219370.603 9684624.045 20207838.964 10 0 60366 45000.00000 0 9640662.163 9588000.712 21598651.358 10 0 60366 45900.00000 0 6916950.613 9694978.257 22570690.289 10 0 60366 46800.00000 0 4116978.935 10018444.543 23105022.355 10 0 60366 47700.00000 0 1311536.511 10558835.193 23191178.967 10 0 60366 48600.00000 0 -1429247.420 11304032.889 22827365.895 10 0 60366 49500.00000 0 -4038580.039 12229809.934 22020507.302 10 0 60366 50400.00000 0 -6455540.967 13300796.802 20786122.700 10 0 60366 51300.00000 0 -8627373.539 14471937.524 19148038.280 10 0 60366 52200.00000 0 -10511436.646 15690372.211 17137937.035 10 0 60366 53100.00000 0 -12076736.157 16897668.885 14794755.175 10 0 60366 54000.00000 0 -13304972.160 18032311.676 12163935.390 10 0 60366 54900.00000 0 -14191058.227 19032341.195 9296550.420 10 0 60366 55800.00000 0 -14743090.944 19838035.798 6248313.341 10 0 60366 56700.00000 0 -14981771.068 20394520.244 3078493.508 10 0 60366 57600.00000 0 -14939300.886 20654190.693 -151240.644 10 0 60366 58500.00000 0 -14657804.781 20578852.420 -3378028.788 10 0 60366 59400.00000 0 -14187340.421 20141478.442 -6539051.530 10 0 60366 60300.00000 0 -13583585.637 19327513.283 -9572763.729 10 0 60366 61200.00000 0 -12905300.169 18135665.634 -12420102.971 10 0 60366 62100.00000 0 -12211670.851 16578155.159 -15025648.559 10 0 60366 63000.00000 0 -11559653.907 14680402.277 -17338707.418 10 0 60366 63900.00000 0 -11001427.847 12480173.412 -19314305.039 10 0 60366 64800.00000 0 -10582065.534 10026217.279 -20914061.842 10 0 60366 65700.00000 0 -10337524.276 7376449.323 -22106937.904 10 0 60366 66600.00000 0 -10293038.992 4595760.342 -22869831.885 10 0 60366 67500.00000 0 -10461986.084 1753540.854 -23188023.116 10 0 60366 68400.00000 0 -10845265.483 -1078975.619 -23055449.015 10 0 60366 69300.00000 0 -11431226.314 -3831439.923 -22474813.297 10 0 60366 70200.00000 0 -12196138.636 -6437072.306 -21457523.683 10 0 60366 71100.00000 0 -13105190.746 -8835194.298 -20023461.043 10 0 60366 72000.00000 0 -14113969.527 -10973503.144 -18200585.041 10 0 60366 72900.00000 0 -15170361.119 -12809995.601 -16024384.342 10 0 60366 73800.00000 0 -16216791.703 -14314462.580 -13537182.303 10 0 60366 74700.00000 0 -17192713.987 -15469494.046 -10787311.776 10 0 60366 75600.00000 0 -18037234.798 -16270954.113 -7828175.062 10 0 60366 76500.00000 0 -18691773.310 -16727908.272 -4717207.243 10 0 60366 77400.00000 0 -19102638.216 -16862007.512 -1514762.972 10 0 60366 78300.00000 0 -19223415.552 -16706356.740 1717051.737 10 0 60366 79200.00000 0 -19017066.884 -16303916.248 4915580.194 10 0 60366 80100.00000 0 -18457649.660 -15705504.441 8018824.991 10 0 60366 81000.00000 0 -17531587.379 -14967486.442 10966644.040 10 0 60366 81900.00000 0 -16238435.983 -14149246.175 13701909.842 10 0 60366 82800.00000 0 -14591113.896 -13310548.311 16171609.927 10 0 60366 83700.00000 0 -12615585.329 -12508900.849 18327867.745 10 0 60366 84600.00000 0 -10350009.148 -11797028.853 20128864.880 10 0 60366 85500.00000 0 -7843387.576 -11220565.133 21539647.374 10 0 60367 0.00000 0 -5153769.890 -10816054.490 22532801.110 10 0 60367 900.00000 0 -2346082.773 -10609354.905 23088984.124 10 0 60367 1800.00000 0 510320.503 -10614503.299 23197304.570 10 0 60367 2700.00000 0 3344296.711 -10833093.009 22855538.769 10 0 60367 3600.00000 0 6085623.641 -11254190.284 22070183.362 10 0 60367 4500.00000 0 8667675.571 -11854793.948 20856340.484 10 0 60367 5400.00000 0 11029952.903 -12600820.040 19237437.153 10 0 60367 6300.00000 0 13120361.558 -13448571.226 17244783.139 10 0 60367 7200.00000 0 14897147.569 -14346630.292 14916974.666 10 0 60367 8100.00000 0 16330406.386 -15238098.904 12299154.372 10 0 60367 9000.00000 0 17403103.703 -16063087.846 9442140.829 10 0 60367 9900.00000 0 18111564.999 -16761353.867 6401443.932 10 0 60367 10800.00000 0 18465413.097 -17274971.458 3236184.963 10 0 60367 11700.00000 0 18486956.380 -17550925.916 7942.462 10 0 60367 12600.00000 0 18210053.684 -17543516.871 -3220453.080 10 0 60367 13500.00000 0 17678504.174 -17216469.199 -6386151.366 10 0 60367 14400.00000 0 16944031.120 -16544660.540 -9427516.150 10 0 60367 15300.00000 0 16063945.706 -15515390.880 -12285335.552 10 0 60367 16200.00000 0 15098590.888 -14129139.213 -14903984.025 10 0 60367 17100.00000 0 14108674.484 -12399774.228 -17232512.390 10 0 60367 18000.00000 0 13152605.311 -10354209.231 -19225643.931 10 0 60367 18900.00000 0 12283945.757 -8031515.233 -20844656.801 10 0 60367 19800.00000 0 11549088.867 -5481529.088 -22058135.557 10 0 60367 20700.00000 0 10985258.089 -2763014.789 -22842577.494 10 0 60367 21600.00000 0 10618913.788 58545.319 -23182842.607 10 0 60367 22500.00000 0 10464633.057 2913437.367 -23072439.191 10 0 60367 23400.00000 0 10524509.187 5730377.406 -22513640.378 10 0 60367 24300.00000 0 10788095.080 8439237.102 -21517430.170 10 0 60367 25200.00000 0 11232891.932 10973720.926 -20103280.749 10 0 60367 26100.00000 0 11825361.649 13273884.363 -18298765.974 10 0 60367 27000.00000 0 12522419.521 15288389.508 -16139018.994 10 0 60367 27900.00000 0 13273343.639 16976405.495 -13666044.758 10 0 60367 28800.00000 0 14022020.168 18309076.090 -10927900.916 10 0 60367 29700.00000 0 14709429.619 19270494.831 -7977763.066 10 0 60367 30600.00000 0 15276269.235 19858148.661 -4872892.437 10 0 60367 31500.00000 0 15665600.987 20082813.087 -1673526.023 10 0 60367 32400.00000 0 15825413.666 19967904.768 1558289.353 10 0 60367 33300.00000 0 15710991.196 19548319.965 4759896.589 10 0 60367 34200.00000 0 15286987.481 18868808.659 7869238.281 10 0 60367 35100.00000 0 14529120.389 17981953.355 10826053.948 10 0 60367 36000.00000 0 13425413.394 16945837.922 13573041.618 10 0 60367 36900.00000 0 11976932.309 15821504.520 16056961.685 10 0 60367 37800.00000 0 10197985.472 14670305.280 18229662.223 10 0 60367 38700.00000 0 8115778.024 13551259.550 20049006.543 10 0 60367 39600.00000 0 5769533.452 12518527.120 21479685.656 10 0 60367 40500.00000 0 3209117.549 11619102.833 22493900.542 10 0 60367 41400.00000 0 493220.372 10890828.754 23071901.526 10 0 60367 42300.00000 0 -2312829.924 10360806.844 23202374.544 10 0 60367 43200.00000 0 -5139532.358 10044278.545 22882666.853 10 0 60367 44100.00000 0 -7915856.829 9944018.351 22118847.486 10 0 60367 45000.00000 0 -10571957.925 10050267.226 20925600.613 10 0 60367 45900.00000 0 -13041847.338 10341209.257 19325952.979 10 0 60367 46800.00000 0 -15265914.640 10783972.367 17350839.534 10 0 60367 47700.00000 0 -17193191.983 11336111.786 15038514.486 10 0 60367 48600.00000 0 -18783268.417 11947514.583 12433818.007 10 0 60367 49500.00000 0 -20007773.861 12562645.502 9587311.822 10 0 60367 50400.00000 0 -20851370.280 13123039.487 6554299.787 10 0 60367 51300.00000 0 -21312208.157 13569935.356 3393752.157 10 0 60367 52200.00000 0 -21401828.952 13846938.633 167154.574 10 0 60367 53100.00000 0 -21144517.440 13902599.790 -3062695.300 10 0 60367 54000.00000 0 -20576131.432 13692797.357 -6232919.204 10 0 60367 54900.00000 0 -19742458.863 13182823.545 -9281792.687 10 0 60367 55800.00000 0 -18697172.316 12349082.533 -12149957.162 10 0 60367 56700.00000 0 -17499468.398 11180328.077 -14781584.826 10 0 60367 57600.00000 0 -16211492.696 9678386.872 -17125472.765 10 0 60367 58500.00000 0 -14895660.105 7858335.999 -19136044.130 10 0 60367 59400.00000 0 -13611984.428 5748126.199 -20774236.543 10 0 60367 60300.00000 0 -12415530.459 3387666.176 -22008260.403 10 0 60367 61200.00000 0 -11354096.060 827405.979 -22814212.621 10 0 60367 62100.00000 0 -10466221.645 -1873521.536 -23176534.452 10 0 60367 63000.00000 0 -9779610.155 -4649523.719 -23088305.283 10 0 60367 63900.00000 0 -9310023.053 -7431043.114 -22551367.498 10 0 60367 64800.00000 0 -9060697.507 -10147220.827 -21576280.844 10 0 60367 65700.00000 0 -9022307.916 -12728617.908 -20182107.914 10 0 60367 66600.00000 0 -9173472.034 -15109882.184 -18396035.522 10 0 60367 67500.00000 0 -9481779.083 -17232250.436 -16252839.748 10 0 60367 68400.00000 0 -9905295.466 -19045782.875 -13794205.310 10 0 60367 69300.00000 0 -10394483.781 -20511238.009 -11067912.628 10 0 60367 70200.00000 0 -10894453.570 -21601511.092 -8126908.396 10 0 60367 71100.00000 0 -11347448.517 -22302577.524 -5028277.666 10 0 60367 72000.00000 0 -11695464.935 -22613903.147 -1832137.366 10 0 60367 72900.00000 0 -11882891.001 -22548305.632 1399527.366 10 0 60367 73800.00000 0 -11859055.413 -22131273.980 4604061.580 10 0 60367 74700.00000 0 -11580577.994 -21399775.647 7719350.513 10 0 60367 75600.00000 0 -11013423.155 -20400602.105 10685017.973 10 0 60367 76500.00000 0 -10134569.558 -19188322.731 13443590.201 10 0 60367 77400.00000 0 -8933225.395 -17822933.015 15941603.088 10 0 60367 78300.00000 0 -7411537.652 -16367295.646 18130631.834 10 0 60367 79200.00000 0 -5584764.638 -14884481.357 19968223.756 10 0 60367 80100.00000 0 -3480903.422 -13435120.397 21418716.825 10 0 60367 81000.00000 0 -1139786.170 -12074874.881 22453928.706 10 0 60367 81900.00000 0 1388318.624 -10852137.089 23053703.447 10 0 60367 82800.00000 0 4044543.649 -9806049.429 23206305.523 10 0 60367 83700.00000 0 6763624.508 -8964928.418 22908653.601 10 0 60367 84600.00000 0 9476376.034 -8345158.374 22166389.192 10 0 60367 85500.00000 0 12112341.923 -7950601.135 20993778.232 10 0 60368 0.00000 0 14602508.729 -7772546.747 19413446.734 10 0 60368 900.00000 0 16881973.684 -7790207.547 17455953.592 10 0 60368 1800.00000 0 18892452.552 -7971735.569 15159209.807 10 0 60368 2700.00000 0 20584527.623 -8275720.660 12567751.429 10 0 60368 3600.00000 0 21919538.469 -8653106.830 9731881.292 10 0 60368 4500.00000 0 22871037.260 -9049445.977 6706694.783 10 0 60368 5400.00000 0 23425747.027 -9407393.577 3551008.350 10 0 60368 6300.00000 0 23583982.067 -9669340.262 326211.665 10 0 60368 7200.00000 0 23359512.315 -9780066.855 -2904933.716 10 0 60368 8100.00000 0 22778877.447 -9689309.244 -6079524.937 10 0 60368 9000.00000 0 21880179.568 -9354122.860 -9135752.644 10 0 60368 9900.00000 0 20711406.016 -8740945.061 -12014114.706 10 0 60368 10800.00000 0 19328353.854 -7827266.648 -14658583.990 10 0 60368 11700.00000 0 17792244.322 -6602840.284 -17017706.475 10 0 60368 12600.00000 0 16167128.903 -5070373.579 -19045607.486 10 0 60368 13500.00000 0 14517197.118 -3245676.602 -20702886.081 10 0 60368 14400.00000 0 12904100.049 -1157256.850 -21957380.123 10 0 60368 15300.00000 0 11384402.490 1154621.858 -22784787.405 10 0 60368 16200.00000 0 10007270.675 3639377.483 -23169131.350 10 0 60368 17100.00000 0 8812492.175 6237985.013 -23103062.974 10 0 60368 18000.00000 0 7828910.092 8885210.735 -22587994.086 10 0 60368 18900.00000 0 7073336.009 11512112.665 -21634059.985 10 0 60368 19800.00000 0 6549985.718 14048703.310 -20259913.124 10 0 60368 20700.00000 0 6250459.800 16426664.360 -18492352.366 10 0 60368 21600.00000 0 6154268.179 18582000.957 -16365795.471 10 0 60368 22500.00000 0 6229875.062 20457525.775 -13921605.325 10 0 60368 23400.00000 0 6436218.922 22005070.359 -11207283.159 10 0 60368 24300.00000 0 6724642.452 23187332.542 -8275544.469 10 0 60368 25200.00000 0 7041150.271 23979283.996 -5183295.521 10 0 60368 26100.00000 0 7328898.632 24369080.196 -1990530.290 10 0 60368 27000.00000 0 7530811.726 24358435.943 1240830.853 10 0 60368 27900.00000 0 7592214.020 23962451.711 4448138.310 10 0 60368 28800.00000 0 7463367.451 23208899.023 7569223.174 10 0 60368 29700.00000 0 7101806.449 22136995.467 10543596.682 10 0 60368 30600.00000 0 6474372.226 20795721.144 13313616.293 10 0 60368 31500.00000 0 5558860.446 19241747.248 15825596.188 10 0 60368 32400.00000 0 4345212.496 17537063.443 18030841.242 10 0 60368 33300.00000 0 2836199.587 15746402.955 19886585.067 10 0 60368 34200.00000 0 1047569.936 13934572.554 21356814.589 10 0 60368 35100.00000 0 -992348.494 12163798.257 22412965.818 10 0 60368 36000.00000 0 -3243574.793 10491196.863 23034477.847 10 0 60368 36900.00000 0 -5655894.626 8966478.107 23209194.607 10 0 60368 37800.00000 0 -8170715.313 7629972.665 22933606.648 10 0 60368 38700.00000 0 -10723281.234 6511067.821 22212927.958 10 0 60368 39600.00000 0 -13245159.176 5627115.816 21061005.715 10 0 60368 40500.00000 0 -15666891.767 4982860.406 19500063.825 10 0 60368 41400.00000 0 -17920709.774 4570405.688 17560284.114 10 0 60368 42300.00000 0 -19943190.957 4369728.702 15279232.068 10 0 60368 43200.00000 0 -21677754.940 4349714.506 12701137.128 10 0 60368 44100.00000 0 -23076889.751 4469670.373 9876040.423 10 0 60368 45000.00000 0 -24104016.372 4681255.282 6858825.832 10 0 60368 45900.00000 0 -24734912.584 4930743.007 3708152.821 10 0 60368 46800.00000 0 -24958635.516 5161522.630 485311.860 10 0 60368 47700.00000 0 -24777903.418 5316729.714 -2746974.808 10 0 60368 48600.00000 0 -24208920.061 5341895.558 -5925782.877 10 0 60368 49500.00000 0 -23280648.878 5187500.784 -8989221.165 10 0 60368 50400.00000 0 -22033567.681 4811323.571 -11877646.915 10 0 60368 51300.00000 0 -20517956.749 4180481.448 -14534836.407 10 0 60368 52200.00000 0 -18791793.132 3273078.789 -16909086.998 10 0 60368 53100.00000 0 -16918340.683 2079389.047 -18954228.349 10 0 60368 54000.00000 0 -14963537.955 602520.706 -20630522.710 10 0 60368 54900.00000 0 -12993294.493 -1141461.969 -21905436.705 10 0 60368 55800.00000 0 -11070809.462 -3123969.049 -22754269.822 10 0 60368 56700.00000 0 -9254025.128 -5304848.363 -23160627.968 10 0 60368 57600.00000 0 -7593321.522 -7633842.125 -23116733.633 10 0 60368 58500.00000 0 -6129548.031 -10052476.097 -22623567.460 10 0 60368 59400.00000 0 -4892473.115 -12496302.590 -21690839.318 10 0 60368 60300.00000 0 -3899715.464 -14897403.982 -20336790.204 10 0 60368 61200.00000 0 -3156199.627 -17187052.708 -18587829.421 10 0 60368 62100.00000 0 -2654157.011 -19298417.292 -16478014.560 10 0 60368 63000.00000 0 -2373670.327 -21169202.212 -14048384.644 10 0 60368 63900.00000 0 -2283736.915 -22744112.142 -11346159.559 10 0 60368 64800.00000 0 -2343804.663 -23977038.592 -8423821.364 10 0 60368 65700.00000 0 -2505714.664 -24832878.453 -5338095.251 10 0 60368 66600.00000 0 -2715967.759 -25288909.336 -2148849.941 10 0 60368 67500.00000 0 -2918218.752 -25335665.083 1082061.269 10 0 60368 68400.00000 0 -3055892.626 -24977275.617 4291996.454 10 0 60368 69300.00000 0 -3074812.143 -24231257.611 7418734.895 10 0 60368 70200.00000 0 -2925725.866 -23127765.322 10401677.598 10 0 60368 71100.00000 0 -2566629.876 -21708333.265 13183015.563 10 0 60368 72000.00000 0 -1964785.247 -20024163.506 15708843.530 10 0 60368 72900.00000 0 -1098346.028 -18134029.068 17930198.213 10 0 60368 73800.00000 0 42471.225 -16101880.678 19804001.501 10 0 60368 74700.00000 0 1454726.288 -13994256.239 21293891.018 10 0 60368 75600.00000 0 3122631.326 -11877600.328 22370922.583 10 0 60368 76500.00000 0 5017970.854 -9815604.616 23014131.458 10 0 60368 77400.00000 0 7101049.749 -7866679.140 23210941.817 10 0 60368 78300.00000 0 9322131.686 -6081658.940 22957416.536 10 0 60368 79200.00000 0 11623309.991 -4501840.868 22258342.189 10 0 60368 80100.00000 0 13940734.859 -3157431.861 21127146.987 10 0 60368 81000.00000 0 16207105.796 -2066473.035 19585652.384 10 0 60368 81900.00000 0 18354326.797 -1234284.361 17663662.049 10 0 60368 82800.00000 0 20316214.410 -653453.119 15398394.979 10 0 60368 83700.00000 0 22031146.100 -304366.635 12833772.587 10 0 60368 84600.00000 0 23444538.115 -156266.948 10019572.545 10 0 60368 85500.00000 0 24511048.763 -168782.927 7010465.122 99